Nome, AK

11:58 AM AKST on February 10, 2016 (GMT -0900)
Nome

Weather History for PAOM - October, 2010

Change the Weather History Date:

Wednesday, October 20, 2010

  Actual Average Record
Temperature  
Mean Temperature 23 °F 27 °F  
Max Temperature 30 °F 33 °F 44 °F (1976)
Min Temperature 15 °F 21 °F 1 °F (1996)
Degree Days  
Heating Degree Days 42 38  
Month to date heating degree days 650 676  
Since 1 July heating degree days 2012 2206  
Cooling Degree Days 0    
Month to date cooling degree days 0  
Year to date cooling degree days 2  
Moisture  
Dew Point 16 °F    
Average Humidity 0    
Maximum Humidity 0    
Minimum Humidity 0    
Precipitation  
Precipitation 0.00 in 0.04 in 0.33 in (1938)
Month to date precipitation 1.07 1.12  
Year to date precipitation 10.54 14.02  
Snow  
Snow 0.00 in 0.20 in 1.80 in (1955)
Month to date snowfall 2.1 2.2  
Since 1 July snowfall 2.1 2.8  
Since 1 September snowfall 2.1 2.8  
Snow Depth 0.00 in    
Sea Level Pressure  
Sea Level Pressure 29.56 in    
Wind  
Wind Speed 5 mph (NE)    
Max Wind Speed 10 mph    
Max Gust Speed 14 mph    
Visibility 10 miles    
Events      
T = Trace of Precipitation, MM = Missing Value Source: NWS Daily Summary

Daily Weather History Graph

Daily Weather History Graph

Search for Another Location

Airport or City:

Trip Planner

Search our weather history database for the weather conditions in past years. The results will help you decide how hot, cold, wet, or windy it might be!

Date:

Astronomy

Oct. 20, 2010 Rise Set
Actual Time 10:09 AM AKDT 7:22 PM AKDT
Civil Twilight 9:18 AM AKDT 8:12 PM AKDT
Nautical Twilight 8:22 AM AKDT 9:08 PM AKDT
Astronomical Twilight 7:26 AM AKDT 10:04 PM AKDT
Moon 6:19 PM AKDT (10/20) 7:35 AM AKDT (10/20)
Length of Visible Light 10h 53m
Length of Day
9h 12m
Waxing Gibbous, 95% of the Moon is Illuminated
Oct 20
Waxing Gibbous
Oct 22
Full
Oct 30
Last Quarter
Nov 5
New
Nov 13
First Quarter

Hourly Weather History & Observations

Time (AKDT) Temp. Windchill Dew Point Humidity Pressure Visibility Wind Dir Wind Speed Gust Speed Precip Events Conditions
12:53 AM 23.0 °F 18.4 °F 15.1 °F 72% 29.62 in 10.0 mi North 3.5 mph - N/A   Mostly Cloudy
1:53 AM 21.0 °F - 14.0 °F 74% 29.61 in 10.0 mi Calm Calm - N/A   Mostly Cloudy
2:53 AM 19.9 °F 12.1 °F 14.0 °F 78% 29.61 in 10.0 mi NNE 5.8 mph - N/A   Mostly Cloudy
3:53 AM 21.9 °F 14.5 °F 15.1 °F 75% 29.60 in 10.0 mi NNW 5.8 mph - N/A   Mostly Cloudy
4:53 AM 23.0 °F - 15.1 °F 72% 29.59 in 10.0 mi Calm Calm - N/A   Mostly Cloudy
5:53 AM 21.9 °F 14.5 °F 15.1 °F 75% 29.58 in 10.0 mi North 5.8 mph - N/A   Mostly Cloudy
6:53 AM 23.0 °F 18.4 °F 16.0 °F 74% 29.57 in 10.0 mi North 3.5 mph - N/A   Overcast
7:53 AM 23.0 °F 13.9 °F 16.0 °F 74% 29.56 in 10.0 mi NE 8.1 mph - N/A   Overcast
8:53 AM 24.1 °F 17.0 °F 16.0 °F 71% 29.56 in 10.0 mi NNE 5.8 mph - N/A   Overcast
9:53 AM 23.0 °F 14.7 °F 15.1 °F 72% 29.56 in 10.0 mi NNE 6.9 mph - N/A   Scattered Clouds
10:53 AM 21.9 °F - 16.0 °F 78% 29.57 in 10.0 mi Calm Calm - N/A   Scattered Clouds
11:53 AM 25.0 °F 20.7 °F 16.0 °F 69% 29.57 in 10.0 mi ENE 3.5 mph - N/A   Scattered Clouds
12:53 PM 27.0 °F 20.5 °F 17.1 °F 66% 29.57 in 10.0 mi ENE 5.8 mph - N/A   Scattered Clouds
1:53 PM 28.0 °F 21.7 °F 17.1 °F 63% 29.57 in 10.0 mi ENE 5.8 mph - N/A   Scattered Clouds
2:53 PM 28.0 °F 22.8 °F 17.1 °F 63% 29.56 in 10.0 mi ENE 4.6 mph - N/A   Mostly Cloudy
3:53 PM 28.9 °F 23.9 °F 17.1 °F 61% 29.55 in 10.0 mi NNE 4.6 mph - N/A   Scattered Clouds
4:53 PM 30.0 °F 25.2 °F 18.0 °F 61% 29.54 in 10.0 mi NE 4.6 mph - N/A   Mostly Cloudy
5:53 PM 30.0 °F 25.2 °F 17.1 °F 59% 29.53 in 10.0 mi East 4.6 mph - N/A   Scattered Clouds
6:53 PM 27.0 °F 21.6 °F 18.0 °F 69% 29.52 in 10.0 mi ESE 4.6 mph - N/A   Scattered Clouds
7:53 PM 24.1 °F 17.0 °F 17.1 °F 75% 29.52 in 10.0 mi East 5.8 mph - N/A   Scattered Clouds
8:53 PM 21.9 °F 13.4 °F 16.0 °F 78% 29.52 in 10.0 mi ENE 6.9 mph - N/A   Scattered Clouds
9:53 PM 19.9 °F 14.9 °F 15.1 °F 81% 29.52 in 10.0 mi NNE 3.5 mph - N/A   Scattered Clouds
10:53 PM 18.0 °F 11.1 °F 14.0 °F 84% 29.52 in 10.0 mi North 4.6 mph - N/A   Partly Cloudy
11:53 PM 18.0 °F 12.7 °F 14.0 °F 84% 29.51 in 10.0 mi North 3.5 mph - N/A   Partly Cloudy